Tracking 20942 objects as of 9-Jul-2020
HD Live streaming from Space Station
objects crossing your sky now

RADUGA 7

Track RADUGA 7 now!
RADUGA 7 is classified as:


NORAD ID: 12003
Int'l Code: 1980-081A
Perigee: 35,771.9 km
Apogee: 35,845.6 km
Inclination: 11.0 °
Period: 1,436.9 minutes
Semi major axis: 42179 km
RCS: 7.9432 m2 (large)
Launch date: October 5, 1980
Source: Commonwealth of Independent States (former USSR) (CIS)
Launch site: TYURATAM MISSILE AND SPACE COMPLEX (TTMTR)
aabbcc
Your satellite tracking list
Your tracking list is empty




NASA's NSSDC Master Catalog

Two Line Element Set (TLE):
1 12003U 80081A   20191.45012272 +.00000111 +00000-0 +00000-0 0  9992
2 12003 010.9742 312.4138 0008737 253.3538 081.9091 01.00218232101556
Source of the keplerian elements: AFSPC